Location: B?jaj?g
(11.7167°N, 92.6667°E)
Time: 15:26:50
(UTC+00:00)

Cosmos 2208 Rocket - Pass Details

Date: 18 September 2020
Orbit: 754 x 806 km, 74.0° (Epoch: 30 October)

Event Time Altitude Azimuth Distance (km) Brightness Sun altitude
Exits shadow 22:04:33 -1° 187° (S) 3,347 7.2 -23.8°
Rises 22:04:44 0° 187° (S) 3,276 7.1 -23.7°
Reaches altitude 10° 22:07:09 10° 184° (S) 2,340 6.4 -23.2°
Maximum altitude 22:12:26 67° 102° (ESE) 839 4.3 -21.9°
Drops below altitude 10° 22:17:38 10° 20° (NNE) 2,306 6.8 -20.6°
Sets 22:20:00 0° 18° (NNE) 3,225 7.5 -20.0°
